GFSCGP_850_temp_120.txt.gz
Temp
7 4 3 7 7 6 5 7 7 8 8 8 7 6 6 9 8 9 10 9 9 8 8 8 8 8 8 8 7 7 7 7 7 7 8 8 8 6 5 6 7 7 7 8
4 4 6 7 7 6 6 7 6 8 8 8 6 6 7 7 7 9 10 10 10 8 8 7 7 7 7 7 6 6 6 6 6 6 7 7 6 5 5 6 5 6 6 7
4 6 7 7 6 7 6 6 7 6 7 7 5 7 9 8 8 8 8 9 9 8 7 7 6 6 6 5 6 6 5 6 6 7 6 6 6 6 7 7 7 6 7 7
4 6 6 6 6 6 7 7 7 7 5 5 5 6 7 8 7 7 7 7 8 7 7 6 6 6 5 5 5 5 5 5 6 6 7 6 7 7 6 6 6 6 6 6
4 6 6 6 7 7 7 8 7 7 5 4 6 3 6 7 7 6 6 7 7 7 6 6 6 5 5 5 5 5 5 5 5 6 6 6 6 6 6 6 6 6 6 6
5 7 7 7 7 7 7 6 4 3 3 3 6 4 7 7 8 9 7 8 8 7 6 6 5 5 4 5 5 5 5 5 5 5 5 5 6 6 5 5 5 5 5 5
4 5 7 8 6 7 5 3 1 4 3 5 4 5 6 8 7 8 8 8 8 7 7 6 5 4 4 5 5 4 5 5 5 5 5 6 6 5 5 6 5 5 5 5
1 3 7 7 7 6 6 5 2 6 4 4 4 5 7 7 7 7 8 8 8 7 6 6 5 5 5 5 5 5 5 5 5 5 5 5 5 5 5 5 5 5 5 5
3 3 7 7 8 8 6 4 5 2 3 5 2 4 6 6 5 6 6 6 7 7 6 6 5 5 5 5 5 5 5 5 5 5 5 5 5 5 5 5 5 5 5 5
5 5 7 8 8 8 7 6 5 2 5 6 3 4 5 6 7 6 4 6 8 7 6 6 5 5 5 5 5 5 5 6 6 5 5 5 4 5 4 4 4 4 4 4
5 6 7 8 7 6 6 6 5 4 3 4 5 7 5 7 8 8 7 9 9 9 8 8 7 7 5 5 5 5 5 5 6 6 5 5 5 4 4 4 4 4 4 4
7 4 3 6 7 6 6 6 5 4 5 4 4 6 7 6 7 7 8 9 10 10 9 9 8 7 6 6 6 6 6 6 6 5 5 5 4 4 4 3 3 3 3 3
6 5 3 5 6 6 6 5 5 4 3 4 4 7 6 5 6 8 7 9 10 10 9 9 8 8 7 7 6 6 6 6 6 6 5 5 4 4 4 3 3 3 3 3
7 4 6 5 8 5 6 5 5 5 2 4 4 5 7 7 6 8 9 10 10 10 10 9 9 9 8 8 7 7 7 6 6 5 5 5 5 4 4 3 3 3 3 3
5 5 3 4 4 5 6 6 4 4 6 5 6 3 6 6 6 9 10 10 10 10 10 10 10 10 9 8 8 8 7 7 6 5 5 5 4 4 3 3 3 3 2 2
3 5 4 1 4 3 3 4 4 4 5 5 6 6 9 9 9 8 10 10 10 11 11 11 10 10 9 9 9 9 8 7 6 6 6 5 4 4 3 3 3 2 2 1
4 3 2 3 3 3 4 3 4 4 4 6 6 8 7 7 6 8 9 10 10 11 11 12 12 12 11 10 10 9 9 8 6 6 6 5 4 4 3 2 2 2 1 1
2 3 1 1 2 6 9 6 5 4 5 5 6 7 8 7 9 9 10 9 10 11 11 12 11 11 11 11 10 9 9 8 7 6 6 5 4 4 3 3 2 2 1 1
3 2 2 1 1 5 9 6 5 6 9 5 5 6 7 8 7 11 12 12 11 11 12 12 12 11 11 11 11 9 8 8 7 7 6 5 4 3 3 2 2 2 1 1
1 1 2 2 5 9 9 8 7 7 8 9 6 6 6 7 7 6 11 11 11 11 11 11 11 11 11 10 10 9 9 8 8 7 7 5 4 3 3 2 2 2 1 0
2 2 2 2 3 3 5 7 8 10 9 9 9 9 9 5 8 10 10 10 10 10 10 10 10 10 10 9 9 9 9 9 8 7 6 5 4 3 2 2 1 1 1 -0
2 1 2 2 2 5 6 6 9 8 9 8 9 9 8 8 9 9 9 9 9 9 9 9 8 8 8 9 8 9 8 8 7 6 5 4 4 3 2 2 1 1 0 -1
4 4 3 2 4 6 7 8 10 9 7 7 7 8 8 7 8 9 9 9 8 8 8 8 8 8 8 8 8 8 8 7 6 5 5 4 3 2 2 2 1 -0 -1 -1
3 3 3 5 6 5 8 8 7 7 7 6 6 7 7 7 8 8 8 8 8 7 7 7 7 8 8 7 7 6 6 6 5 4 4 3 2 2 1 1 0 -1 -1 -2
4 3 3 2 5 8 9 7 6 5 4 4 4 5 5 6 6 7 7 7 7 6 6 6 6 6 7 6 6 5 5 4 4 3 3 2 2 1 1 0 -0 -1 -2 -2
3 3 3 4 4 3 4 6 5 4 4 4 3 4 6 5 5 6 6 6 5 5 5 6 6 5 5 5 5 4 4 4 3 3 2 2 1 1 0 -0 -1 -2 -2 -3

GFSCGP_850_temp_123.txt.gz
Temp
7 5 5 6 7 6 6 7 7 7 8 8 8 7 8 10 8 9 10 9 9 10 9 9 9 8 8 9 8 8 8 7 7 8 8 8 8 7 8 8 8 7 7 7
5 5 5 6 6 6 6 7 6 7 8 8 6 7 8 7 8 9 10 11 10 10 9 8 8 8 8 8 8 7 7 7 7 7 7 7 6 6 7 7 7 7 7 7
5 6 6 6 5 7 5 7 7 7 7 6 5 9 9 8 7 8 8 9 10 10 9 8 8 8 8 7 7 6 6 7 7 7 6 6 6 6 7 7 7 7 7 7
4 6 6 6 6 6 7 7 7 7 7 8 5 10 9 8 7 7 8 8 9 9 8 8 8 7 7 6 6 6 6 6 6 6 6 7 7 7 7 7 7 6 6 6
4 6 6 6 6 7 6 7 6 6 5 5 6 6 10 6 9 8 7 8 9 8 8 8 7 7 6 5 5 5 5 6 6 6 6 6 6 6 6 5 5 5 6 6
5 6 6 6 6 6 5 6 4 4 5 7 5 6 10 9 9 9 7 9 9 8 8 7 7 6 5 5 5 5 5 5 5 6 6 6 6 6 5 5 5 5 6 6
4 5 6 7 6 6 5 4 4 7 5 8 4 5 10 9 8 8 9 9 9 8 8 7 6 6 5 5 5 5 5 5 5 6 6 6 6 6 6 5 5 5 5 5
2 3 6 7 7 6 5 5 4 8 7 6 4 6 10 7 6 8 8 9 9 8 7 7 7 6 6 5 5 5 5 5 5 6 6 6 6 6 5 5 4 4 4 4
3 3 6 6 7 7 6 5 5 3 3 5 5 6 7 6 6 7 7 7 8 8 8 8 7 6 6 5 5 5 5 6 6 6 6 6 6 5 5 4 4 4 4 4
5 5 7 7 8 7 7 5 6 3 6 8 6 5 7 7 7 7 6 8 9 9 8 8 8 7 6 6 6 6 6 7 7 7 6 6 6 5 4 4 4 4 4 4
5 5 7 7 6 6 6 5 4 4 5 7 7 10 5 7 8 9 8 9 10 10 10 9 9 8 8 7 7 7 6 7 7 6 6 6 5 5 4 4 4 3 3 3
6 4 4 7 6 6 6 5 5 6 5 4 5 8 7 6 6 7 9 10 10 10 10 10 10 9 9 8 8 7 7 7 7 6 6 5 5 5 4 4 3 3 3 4
6 5 4 6 6 5 6 5 5 4 4 4 6 9 6 5 7 9 9 10 11 11 11 11 10 11 10 9 9 8 7 7 7 6 6 5 5 5 4 3 3 3 3 3
7 4 6 6 8 5 5 5 4 5 4 4 5 6 7 7 7 8 10 10 10 10 10 10 10 10 10 10 9 9 8 8 7 6 6 6 5 4 4 4 3 3 3 3
5 6 3 4 4 5 6 6 4 5 5 6 6 4 7 6 6 8 9 10 10 11 11 11 10 10 10 10 9 9 8 8 7 6 6 6 5 4 4 4 3 3 3 2
3 4 3 1 4 3 3 3 4 4 5 4 6 6 9 9 9 9 9 8 9 9 10 10 10 11 11 10 10 9 9 9 8 7 6 6 5 5 4 4 4 3 3 2
3 3 2 4 2 3 5 3 3 4 4 6 5 8 7 6 6 8 9 10 10 10 10 10 11 11 11 11 10 9 9 8 8 7 7 6 5 5 5 4 3 3 2 2
2 3 1 1 3 6 8 5 4 4 5 4 5 6 6 7 8 10 12 11 11 11 11 11 11 12 11 11 10 10 9 9 8 7 7 6 6 5 5 4 3 3 2 2
2 2 1 1 1 5 8 6 5 7 9 5 4 5 7 9 7 8 11 10 9 9 10 10 10 10 10 10 10 9 9 9 8 8 7 7 6 5 5 4 3 2 2 1
1 1 2 1 4 9 9 7 7 7 8 7 6 7 7 6 5 6 9 8 9 9 9 9 10 9 9 9 9 9 9 8 9 9 8 7 6 5 5 4 3 2 2 1
2 1 2 2 2 4 4 6 7 9 8 8 7 7 6 5 6 7 8 9 9 9 9 9 8 8 8 8 8 8 8 9 9 8 7 7 6 5 4 3 2 2 1 1
1 1 1 2 3 5 5 6 9 7 7 7 7 7 5 5 6 7 7 8 8 8 8 8 7 8 8 8 7 7 8 8 8 7 6 6 5 4 3 3 2 1 1 1
3 3 3 3 4 6 6 8 7 7 5 5 5 4 4 3 5 5 6 6 7 7 7 7 7 7 7 7 7 7 7 7 7 6 6 5 4 3 3 2 2 1 1 0
2 3 3 4 3 5 8 7 5 5 4 4 4 3 3 2 3 4 6 6 6 7 6 6 6 6 7 6 6 6 5 6 6 6 5 4 4 3 2 2 1 1 0 -0
3 2 2 2 5 7 6 6 6 5 5 5 5 4 4 3 4 4 5 5 5 5 5 5 5 5 6 6 5 5 5 5 5 4 4 3 3 2 2 1 1 1 0 -0
2 3 3 4 4 4 5 5 5 4 5 4 4 5 4 3 3 4 4 4 4 5 5 5 5 4 5 5 5 5 4 4 3 3 3 3 2 2 1 1 0 0 -0 -1

GFSCGP_850_temp_126.txt.gz
Temp
9 13 13 14 11 13 13 15 13 11 10 12 13 13 15 14 11 13 14 13 12 10 9 10 10 9 9 9 9 9 8 8 8 8 8 7 8 8 8 8 8 8 8 8
11 10 9 9 11 13 14 15 12 10 10 12 12 14 16 15 14 13 14 13 12 11 8 10 9 9 9 9 8 8 8 8 7 7 7 7 7 7 7 7 7 7 7 8
12 9 8 11 12 13 12 14 12 11 10 10 12 17 16 14 12 11 11 11 11 11 10 8 9 9 9 8 8 8 7 7 7 7 7 7 7 6 6 6 7 7 7 7
9 8 10 11 10 12 13 10 11 11 14 15 11 16 17 15 14 12 12 10 10 9 8 8 8 9 8 8 8 7 7 7 7 7 7 7 6 6 6 6 6 6 6 7
7 9 10 10 8 9 10 10 10 11 12 12 12 13 19 13 16 16 14 12 10 8 8 7 8 8 8 8 7 6 6 6 6 7 7 6 6 6 6 6 6 6 6 6
8 7 8 8 8 10 9 10 10 11 12 13 10 12 18 17 15 14 12 12 9 8 8 8 8 8 8 7 6 6 6 6 6 6 6 6 6 6 6 6 6 6 6 5
10 8 8 9 10 9 10 11 11 12 12 14 9 11 18 15 13 13 12 11 10 8 8 8 8 8 7 7 7 6 6 6 6 6 7 7 6 6 6 5 5 5 5 5
9 8 9 9 9 11 9 10 12 13 14 14 8 12 17 12 10 10 9 9 9 9 8 8 8 8 8 7 6 6 6 6 6 6 6 6 6 6 5 5 5 5 5 5
9 6 8 8 9 9 9 10 9 9 8 11 14 13 14 12 11 11 10 9 9 9 10 10 10 9 8 7 7 6 6 6 7 6 6 6 5 5 5 5 5 4 4 4
9 8 9 8 9 9 10 9 11 10 12 14 15 13 14 12 11 12 11 11 10 9 10 10 10 9 9 8 7 7 7 7 7 6 6 6 5 5 5 5 5 5 5 4
10 11 8 9 9 10 9 10 9 10 10 13 15 17 14 12 11 12 12 10 10 11 11 10 10 10 9 9 8 7 7 7 7 6 6 6 6 6 6 6 5 4 4 4
9 10 9 9 8 8 9 10 11 13 11 10 11 16 12 12 11 10 11 10 10 11 11 11 11 11 10 9 9 8 8 7 7 6 6 6 6 5 5 5 5 4 4 4
10 10 9 9 9 8 9 9 10 9 10 10 13 17 11 11 11 11 11 11 11 10 10 10 11 11 10 10 10 9 9 9 8 7 7 6 6 6 6 5 5 5 4 3
8 9 10 13 11 10 9 8 9 11 10 12 12 14 14 13 13 12 11 11 11 10 10 9 10 10 10 9 10 10 9 9 8 7 7 7 6 6 6 5 5 4 4 3
9 9 7 8 8 8 9 9 8 9 11 12 13 10 13 13 12 12 10 10 10 10 9 9 9 10 10 10 10 10 10 9 9 8 7 7 6 6 5 5 5 4 4 3
7 8 7 6 6 7 7 9 9 9 10 10 10 10 12 11 10 10 11 11 10 10 9 9 10 10 10 10 10 10 10 9 8 8 8 7 7 6 5 5 5 4 4 3
8 8 7 9 6 7 9 9 9 9 8 10 10 12 11 11 11 10 10 10 9 9 9 9 10 10 10 10 10 10 10 9 8 8 8 7 7 6 6 5 4 4 4 3
7 8 6 8 8 11 10 8 8 9 9 9 10 10 11 10 9 9 9 9 9 9 8 8 8 9 10 10 10 10 10 9 8 8 8 7 7 6 6 5 5 4 4 3
6 8 7 8 9 11 9 7 8 9 10 9 9 10 10 9 8 10 9 9 7 7 8 9 9 9 9 9 9 9 9 8 8 8 8 8 7 6 6 5 5 4 4 3
5 6 8 6 8 13 12 9 7 8 11 8 8 9 8 7 9 12 8 6 7 8 8 8 9 9 8 8 8 8 8 8 8 8 8 7 7 6 6 5 5 4 3 3
6 6 7 8 8 10 10 7 7 11 11 8 7 7 6 7 7 6 4 5 6 6 7 8 8 8 7 7 7 7 7 7 7 7 7 7 7 6 5 5 4 4 3 2
7 6 6 6 6 9 6 6 10 8 7 6 6 5 5 4 4 3 3 4 5 6 6 6 6 7 6 6 6 6 7 6 7 7 7 7 6 6 5 4 4 3 2 2
8 8 8 8 10 7 6 7 6 6 5 4 3 3 2 2 2 3 3 4 5 5 5 5 5 6 6 6 6 6 6 6 6 6 6 6 6 5 4 3 3 2 2 1
5 4 7 6 7 6 7 6 5 4 4 4 4 4 3 3 3 3 3 4 4 5 5 5 5 6 6 5 5 5 5 5 5 5 5 5 5 4 3 3 2 2 1 1
6 4 6 7 7 6 5 6 4 4 4 4 3 3 3 3 3 3 4 4 4 5 5 5 5 5 5 5 5 5 5 5 4 4 4 4 4 4 3 3 2 2 1 0
4 7 8 9 6 6 6 5 5 4 4 5 5 4 4 4 4 4 4 4 4 5 5 5 5 5 5 5 5 5 5 5 5 4 4 3 3 2 2 2 1 1 0 -0

GFSCGP_850_temp_129.txt.gz
Temp
13 14 14 16 17 18 18 17 17 14 12 14 16 17 18 17 15 15 17 17 16 14 12 10 9 9 10 10 10 9 9 9 9 8 7 6 8 8 7 7 8 8 8 8
13 14 12 14 14 16 17 18 16 13 13 14 16 16 18 18 17 16 16 17 17 15 13 10 8 8 9 8 9 9 9 8 8 8 8 8 8 8 7 7 7 7 8 8
13 12 11 14 15 17 17 18 15 13 13 14 15 18 19 19 19 18 17 16 16 15 14 12 9 8 7 7 9 9 9 8 8 8 7 7 7 7 6 7 7 7 7 7
11 11 13 14 13 15 14 14 15 14 16 17 15 17 20 20 17 16 15 14 14 13 13 12 10 8 7 7 9 9 8 8 7 7 7 6 6 5 6 6 6 6 7 7
9 12 13 12 10 13 12 14 14 15 16 16 16 15 21 17 18 19 17 15 14 13 11 11 10 8 7 8 9 9 8 7 7 7 7 7 6 6 6 6 6 6 6 6
10 10 11 11 12 12 12 14 14 15 15 15 15 16 20 20 18 16 15 15 13 11 10 9 9 8 8 9 9 8 8 7 7 7 6 6 6 6 5 5 5 6 6 6
11 10 10 11 12 12 13 14 11 13 12 15 12 14 20 18 16 15 14 14 12 11 10 9 8 9 9 8 8 8 7 7 7 7 7 7 6 6 6 6 6 6 6 6
9 8 10 10 11 13 13 13 13 13 15 16 11 14 18 15 13 13 13 12 11 11 10 9 9 8 7 8 8 7 7 7 7 7 6 7 6 6 6 6 6 6 6 6
10 7 10 10 11 11 12 13 12 13 13 15 17 16 17 15 15 13 13 11 12 11 10 9 9 9 9 8 8 8 8 8 7 7 6 6 7 7 7 6 6 6 6 6
12 9 11 10 11 11 12 12 13 12 13 15 16 16 17 13 13 14 14 13 13 11 10 10 9 9 10 10 10 9 9 8 8 7 7 7 7 7 7 6 6 6 5 6
13 13 10 11 11 13 11 12 12 14 14 15 18 17 16 14 14 14 14 13 12 11 11 11 11 11 11 10 10 9 8 8 8 7 7 7 7 7 6 6 6 6 5 5
12 13 11 12 10 11 12 13 15 15 14 14 14 16 15 14 13 13 13 13 13 12 12 11 11 10 9 10 10 9 9 7 7 7 7 7 7 7 6 6 6 6 5 5
12 13 11 11 11 10 10 12 13 12 13 14 15 16 14 14 15 15 14 13 13 13 13 12 12 11 10 9 8 7 7 8 7 6 7 7 7 7 7 6 6 6 5 5
10 12 12 13 12 13 11 12 12 12 12 15 15 16 15 15 15 14 13 13 13 13 12 11 11 11 11 10 9 8 7 7 8 7 7 7 7 7 7 7 6 5 5 5
11 11 9 11 10 10 11 11 11 11 12 13 15 14 15 15 14 13 13 13 13 12 11 11 10 10 10 10 9 8 9 7 7 7 6 8 8 7 7 7 6 6 5 5
10 10 9 8 9 9 9 11 12 11 12 12 13 13 15 13 13 13 13 12 12 11 11 10 10 9 9 9 9 10 10 9 8 7 7 7 7 7 7 7 6 6 6 5
11 10 9 11 9 10 11 11 11 11 12 12 12 14 14 13 12 11 11 11 11 11 10 9 9 9 9 8 9 9 9 9 8 8 7 6 5 5 6 6 6 6 6 5
10 10 9 9 10 11 11 11 11 12 12 12 12 13 12 12 11 10 10 10 10 9 8 8 8 8 8 7 7 8 8 8 8 8 7 6 4 4 3 4 5 5 5 5
9 11 10 9 12 14 10 8 9 10 11 11 11 11 11 10 9 12 10 8 7 6 6 6 6 6 7 7 6 7 7 7 7 7 7 6 5 5 3 3 4 5 5 5
7 9 10 10 10 14 13 10 9 10 12 10 9 10 9 9 9 12 8 6 5 5 5 5 5 6 6 6 7 7 7 7 7 7 7 7 6 5 4 4 4 4 4 4
7 8 8 10 10 13 11 9 9 11 10 9 8 8 8 8 9 7 5 4 4 4 4 6 6 6 6 6 6 7 6 7 6 6 6 6 6 6 5 4 3 2 3 3
10 9 9 10 9 10 8 8 11 10 8 8 7 6 5 5 5 4 4 3 4 5 5 5 5 6 6 5 5 6 6 6 6 6 6 6 6 6 5 4 3 2 3 3
10 12 12 11 12 9 8 8 7 6 6 6 5 4 4 3 3 3 3 3 3 3 4 5 5 5 5 5 4 5 5 5 5 5 5 5 5 5 4 3 2 2 2 2
9 8 9 9 10 9 8 6 5 5 4 4 4 4 4 3 3 3 3 3 3 3 4 5 5 6 6 5 5 5 5 5 5 5 4 4 4 4 4 3 2 2 1 1
9 7 9 9 9 8 6 6 5 4 4 4 5 4 3 2 2 3 3 4 5 5 5 5 6 6 6 6 6 6 6 5 5 5 4 4 4 4 3 3 2 2 1 1
7 9 9 11 10 9 7 4 4 4 4 4 3 4 4 4 4 5 5 5 6 6 6 6 6 6 6 7 7 6 6 5 5 5 4 4 4 3 3 2 2 2 1 1

GFSCGP_850_temp_132.txt.gz
Temp
12 11 10 13 14 16 14 15 13 12 13 14 14 15 15 15 14 15 16 16 15 14 13 12 10 10 11 11 11 11 10 10 10 9 8 7 7 8 7 7 7 7 8 8
11 10 13 15 15 15 15 14 12 12 13 13 14 14 14 16 14 15 15 16 17 16 14 12 11 10 10 10 10 10 10 10 9 8 8 7 8 7 7 7 7 7 7 7
10 11 12 14 14 15 16 14 12 10 13 14 14 13 14 16 18 17 16 16 17 17 15 13 12 11 10 9 9 9 9 9 8 8 7 7 7 6 5 6 7 7 7 7
10 11 13 14 12 13 12 14 14 13 11 9 14 10 17 16 15 17 17 16 16 16 15 14 13 11 11 9 8 9 9 8 8 7 7 7 6 5 6 6 6 7 7 7
9 11 12 11 11 13 12 14 14 14 14 13 15 9 15 15 15 14 15 15 15 14 13 13 12 11 10 8 8 9 9 8 8 7 7 7 6 7 7 7 7 7 7 7
9 10 10 11 12 12 12 13 14 14 12 8 13 12 13 14 15 14 15 15 14 13 12 11 11 11 9 8 9 9 9 8 8 7 7 7 7 7 7 7 7 7 7 7
10 10 10 11 11 12 12 12 7 8 6 8 12 11 12 14 14 13 13 13 12 11 11 10 10 10 9 9 10 9 9 8 8 8 8 8 7 7 7 8 7 7 7 7
6 7 10 11 11 12 12 11 8 9 8 8 11 9 13 12 13 13 13 12 12 11 11 10 10 10 10 10 10 9 9 9 8 8 8 8 8 8 8 8 7 7 7 7
7 6 10 10 11 11 11 9 11 11 13 8 9 13 13 13 13 13 13 12 12 12 11 11 11 11 11 11 11 10 9 9 8 8 8 8 8 8 8 7 7 7 7 6
11 7 11 10 11 11 10 11 9 7 9 12 11 15 9 11 12 12 12 12 12 12 12 12 12 12 12 12 11 11 11 10 9 8 8 8 8 8 8 7 7 7 7 6
12 10 9 10 10 11 10 10 11 11 9 9 12 11 14 11 12 11 12 13 13 12 12 12 12 12 11 11 11 10 10 10 9 9 8 8 8 8 8 8 7 7 7 6
11 10 7 10 10 10 10 12 13 10 11 11 10 10 13 11 12 13 13 13 13 13 13 12 12 12 11 11 10 9 9 9 9 8 8 8 8 8 7 8 8 7 7 6
10 10 6 9 9 10 10 11 12 11 10 10 9 10 11 12 12 14 13 13 13 13 12 12 11 11 11 11 10 9 9 9 8 7 7 7 7 7 8 8 7 7 7 7
9 11 9 8 10 10 10 11 10 10 6 11 11 11 11 11 11 12 13 13 13 12 12 11 10 10 10 10 10 10 9 8 8 7 7 7 7 7 7 7 7 7 6 6
9 9 7 10 11 10 11 10 10 9 9 10 12 13 12 12 11 12 13 12 12 11 11 10 9 9 9 9 9 9 9 8 8 7 7 7 6 6 5 5 6 6 5 6
9 8 8 5 9 9 8 9 10 9 10 10 10 10 11 13 13 12 11 11 11 11 10 9 8 8 9 8 8 8 9 8 8 8 8 7 7 6 5 5 5 4 4 5
10 7 6 9 9 9 7 8 9 9 10 10 9 11 12 10 10 11 10 10 10 9 9 8 7 7 7 8 8 8 8 8 8 8 8 8 7 6 5 5 4 4 4 4
9 8 6 4 8 7 10 9 8 10 11 10 11 11 10 10 10 10 9 8 8 8 7 6 6 6 7 7 7 7 7 7 7 7 7 7 6 6 5 4 4 3 3 3
7 8 6 4 7 11 9 8 9 9 9 10 10 11 10 10 9 8 8 7 6 5 5 5 5 5 6 6 6 7 7 7 6 6 6 6 6 6 5 5 4 4 3 3
7 7 6 7 8 10 10 9 10 10 7 9 9 9 9 8 6 6 8 7 6 5 5 5 5 5 6 6 6 6 6 6 6 6 6 6 6 5 5 4 4 3 2 2
5 6 4 5 6 8 9 9 9 9 9 9 8 8 7 6 6 6 6 5 5 5 5 6 6 6 6 6 6 6 6 6 6 6 6 5 5 5 5 5 4 3 2 1
5 4 4 6 7 6 9 8 8 7 8 8 7 6 5 5 5 4 5 5 5 5 5 5 5 6 5 6 5 5 6 5 5 5 5 5 5 5 5 4 4 3 2 1
6 8 7 7 7 8 8 7 7 7 7 6 6 5 5 5 5 5 5 5 5 5 6 6 6 7 6 6 6 7 7 7 7 7 6 6 5 5 5 5 4 4 3 2
7 8 6 7 7 7 7 7 6 6 7 6 5 5 5 4 5 5 5 5 5 5 6 6 6 7 7 6 6 6 6 6 6 6 6 6 5 5 5 5 4 4 3 2
6 6 6 7 8 7 7 6 6 6 5 5 5 5 5 5 5 4 5 5 5 5 6 6 6 6 6 6 6 6 5 5 6 6 6 6 5 5 5 4 4 3 3 2
6 5 5 6 8 7 6 5 5 5 5 5 5 4 4 4 4 4 4 4 4 5 5 5 6 5 6 6 6 6 5 5 5 5 5 5 5 5 4 4 4 4 3 2